TimeMST,TemperatureF,Dew PointF,Humidity,Sea Level PressureIn,VisibilityMPH,Wind Direction,Wind SpeedMPH,Gust SpeedMPH,PrecipitationIn,Events,Conditions,WindDirDegrees,DateUTC
12:09 AM,-4.0,-7.6,85,30.35,1.8,Calm,Calm,-,N/A,,Clear,0,2012-12-09 07:09:00
12:20 AM,-5.8,-7.6,92,30.36,4.0,Calm,Calm,-,N/A,,Clear,0,2012-12-09 07:20:00
12:23 AM,-5.8,-7.6,92,30.36,2.5,WSW,3.5,-,N/A,,Partly Cloudy,250,2012-12-09 07:23:00
12:26 AM,-5.8,-9.4,84,30.36,1.0,Calm,Calm,-,N/A,,Mist,0,2012-12-09 07:26:00
12:32 AM,-2.2,-5.8,85,30.36,0.5,Calm,Calm,-,N/A,Fog,Light Freezing Fog,0,2012-12-09 07:32:00
12:53 AM,-5.1,-9.9,80,30.51,1.5,Calm,Calm,-,N/A,,Haze,0,2012-12-09 07:53:00
1:02 AM,-5.8,-9.4,84,30.36,3.0,Calm,Calm,-,N/A,,Mostly Cloudy,0,2012-12-09 08:02:00
1:08 AM,-5.8,-9.4,84,30.36,1.0,South,4.6,-,N/A,,Mostly Cloudy,180,2012-12-09 08:08:00
1:15 AM,-4.0,-5.8,92,30.36,0.2,South,3.5,-,N/A,Fog,Light Freezing Fog,180,2012-12-09 08:15:00
1:23 AM,-2.2,-7.6,78,30.37,3.0,Calm,Calm,-,N/A,,Overcast,0,2012-12-09 08:23:00
1:53 AM,-2.9,-7.1,82,30.52,10.0,Calm,Calm,-,N/A,,Overcast,0,2012-12-09 08:53:00
2:53 AM,1.9,-2.9,80,30.53,10.0,West,4.6,-,N/A,,Overcast,260,2012-12-09 09:53:00
3:53 AM,1.9,-2.0,83,30.53,10.0,SW,4.6,-,N/A,,Overcast,230,2012-12-09 10:53:00
4:53 AM,3.0,-0.9,84,30.54,10.0,Calm,Calm,-,N/A,,Overcast,0,2012-12-09 11:53:00
5:53 AM,1.0,-2.9,83,30.55,10.0,Calm,Calm,-,N/A,,Overcast,0,2012-12-09 12:53:00
6:53 AM,-0.0,-4.0,83,30.56,10.0,Calm,Calm,-,N/A,,Overcast,0,2012-12-09 13:53:00
7:53 AM,1.0,-2.9,83,30.56,4.0,Calm,Calm,-,0.00,Snow,Light Snow,0,2012-12-09 14:53:00
8:32 AM,3.2,-0.4,85,30.40,2.0,Calm,Calm,-,0.00,Snow,Light Snow,0,2012-12-09 15:32:00
8:39 AM,3.2,1.4,92,30.40,1.8,Calm,Calm,-,0.00,Snow,Light Snow,0,2012-12-09 15:39:00
8:53 AM,5.0,1.0,84,30.55,1.8,Calm,Calm,-,0.00,Snow,Light Snow,0,2012-12-09 15:53:00
9:09 AM,6.8,3.2,85,30.39,2.0,SW,3.5,-,0.00,Snow,Light Snow,220,2012-12-09 16:09:00
9:26 AM,6.8,3.2,85,30.39,1.5,SSW,3.5,-,0.00,Snow,Light Snow,200,2012-12-09 16:26:00
9:39 AM,8.6,5.0,85,30.38,3.0,SSW,3.5,-,0.00,Snow,Light Snow,210,2012-12-09 16:39:00
9:53 AM,9.0,5.0,84,30.53,6.0,SSW,3.5,-,0.00,,Overcast,210,2012-12-09 16:53:00
10:53 AM,9.0,3.0,77,30.51,10.0,Calm,Calm,-,N/A,,Clear,0,2012-12-09 17:53:00
11:24 AM,10.4,3.2,73,30.33,8.0,Calm,Calm,-,N/A,,Mostly Cloudy,0,2012-12-09 18:24:00
11:39 AM,10.4,3.2,73,30.32,10.0,Calm,Calm,-,N/A,,Scattered Clouds,0,2012-12-09 18:39:00
11:53 AM,10.0,3.9,76,30.47,10.0,Calm,Calm,-,N/A,,Clear,0,2012-12-09 18:53:00
12:53 PM,10.9,5.0,77,30.42,10.0,SW,4.6,-,N/A,,Clear,230,2012-12-09 19:53:00
1:53 PM,10.9,3.9,73,30.38,10.0,Calm,Calm,-,N/A,,Clear,0,2012-12-09 20:53:00
2:53 PM,10.0,3.9,76,30.32,10.0,Calm,Calm,-,N/A,,Clear,0,2012-12-09 21:53:00
3:53 PM,6.1,-0.0,76,30.30,10.0,NNE,3.5,-,N/A,,Clear,20,2012-12-09 22:53:00
4:53 PM,-0.9,-4.0,87,30.26,10.0,NNE,4.6,-,N/A,,Clear,30,2012-12-09 23:53:00
5:53 PM,-4.0,-7.1,87,30.22,10.0,NNE,3.5,-,N/A,,Clear,30,2012-12-10 00:53:00
6:53 PM,1.0,-2.9,83,30.16,10.0,NNE,4.6,-,N/A,,Clear,30,2012-12-10 01:53:00
7:53 PM,-0.9,-5.1,83,30.13,10.0,NNE,4.6,-,N/A,,Clear,30,2012-12-10 02:53:00
8:53 PM,-0.0,-4.0,83,30.07,10.0,NNE,4.6,-,N/A,,Clear,20,2012-12-10 03:53:00
9:53 PM,1.0,-2.9,83,30.01,10.0,NNE,5.8,-,N/A,,Partly Cloudy,20,2012-12-10 04:53:00
10:53 PM,1.9,-2.0,83,29.97,10.0,Calm,Calm,-,N/A,,Overcast,0,2012-12-10 05:53:00
11:53 PM,5.0,1.0,84,29.93,10.0,Calm,Calm,-,N/A,,Overcast,0,2012-12-10 06:53:00